Stations météo

Publicité
Bordeaux/Merignac, France (7510): Température de l'air & dewpoint: 18.09.2020 09:00:00 - 24.09.2020 09:00:00 (CEST)Bordeaux/Merignac, France (7510): Température de l'air 5cm: 18.09.2020 09:00:00 - 24.09.2020 09:00:00 (CEST)Bordeaux/Merignac, France (7510): Température de l'air -20cm & Température de l'air -100cm: 18.09.2020 09:00:00 - 24.09.2020 09:00:00 (CEST)Bordeaux/Merignac, France (7510): Vitesse du vent & gusts: 18.09.2020 09:00:00 - 24.09.2020 09:00:00 (CEST)Bordeaux/Merignac, France (7510): Direction du vent: 18.09.2020 09:00:00 - 24.09.2020 09:00:00 (CEST)Bordeaux/Merignac, France (7510): reduced air pressure: 18.09.2020 09:00:00 - 24.09.2020 09:00:00 (CEST)Bordeaux/Merignac, France (7510): visibility: 18.09.2020 09:00:00 - 24.09.2020 09:00:00 (CEST)Bordeaux/Merignac, France (7510): Ensoleillement: 18.09.2020 09:00:00 - 24.09.2020 09:00:00 (CEST)Bordeaux/Merignac, France (7510): Quantités de précipitations: 18.09.2020 09:00:00 - 24.09.2020 09:00:00 (CEST)
Date & Time tt [°C] td [°C] tt 5cm [°C] tt -20cm [°C] tt -100cm [°C] ff [km/h] ff [knt] fx [km/h] fx [knt] dd ppp [hPa] vv [km] sd [min] rr [mm]
24.09.2020 09:00:00 - - - - - - - - - - - - - -
24.09.2020 08:00:00 16,5 15,7 15,9 20,8 21,9 10 6 16 9 WSW 1010,7 41 0 0,2
24.09.2020 07:00:00 16,5 15,9 15,9 20,9 21,9 10 6 15 8 WSW 1010,4 3,9 0 0,0
24.09.2020 06:00:00 16,5 15,7 15,7 21,0 21,9 9 5 16 9 SSW 1010,5 24 0 0,0
24.09.2020 05:00:00 17,0 15,7 16,3 21,1 21,9 7 4 16 9 WSW 1010,4 30 0 0,0
24.09.2020 04:00:00 16,8 15,3 15,5 21,2 21,9 11 6 19 11 SW 1010,7 26 0 0,0
24.09.2020 03:00:00 16,4 15,1 15,2 21,3 21,9 12 7 18 10 SSW 1010,8 31 0 0,0
24.09.2020 02:00:00 17,0 15,2 16,2 21,4 21,9 9 5 17 9 SSW 1011,1 33 0 0,0
24.09.2020 01:00:00 17,4 15,4 16,4 21,6 21,9 11 6 18 10 SSW 1011,1 36 0 0,0
24.09.2020 00:00:00 17,6 15,8 15,9 21,7 21,9 9 5 12 6 SSW 1011,2 36 0 0,0
23.09.2020 23:00:00 18,3 15,2 16,9 21,8 21,9 9 5 16 9 SW 1011,1 43 0 0,0
23.09.2020 22:00:00 19,3 15,2 18,2 21,9 21,9 11 6 21 11 WSW 1010,9 48 0 0,0
23.09.2020 21:00:00 19,5 15,6 18,6 22,1 21,9 12 6 25 14 WSW 1010,3 49 0 0,0
23.09.2020 20:00:00 20,2 16,0 19,4 22,2 21,9 15 8 34 19 W 1009,7 48 0 0,0
23.09.2020 19:00:00 21,0 16,4 21,1 22,2 21,9 26 14 41 22 W 1009,4 40 0 0,0
23.09.2020 18:00:00 21,8 15,6 22,6 22,1 21,9 23 13 49 27 W 1009,1 36 13 0,0
23.09.2020 17:00:00 23,2 16,3 25,0 22,1 22,0 38 20 58 32 WSW 1008,7 25 23 0,0
23.09.2020 16:00:00 24,1 14,8 25,1 21,8 22,0 37 20 53 29 WSW 1008,6 13 41 0,0
23.09.2020 15:00:00 25,7 13,9 28,5 21,5 22,0 27 14 39 21 SW 1008,2 13 45 0,0
23.09.2020 14:00:00 24,7 14,8 27,1 21,2 22,0 20 11 30 16 SW 1008,5 29 40 0,0
23.09.2020 13:00:00 23,5 15,8 26,5 20,9 22,0 15 8 29 16 SSW 1008,9 46 44 0,0
23.09.2020 12:00:00 21,7 16,4 23,7 20,7 22,0 15 8 22 12 SSE 1009,3 32 38 0,0
23.09.2020 11:00:00 20,7 16,9 21,3 20,6 22,0 15 8 25 14 SE 1009,5 43 60 0,0
23.09.2020 10:00:00 17,9 15,9 16,3 20,6 22,1 15 8 22 12 SSE 1009,6 31 60 0,0
23.09.2020 09:00:00 15,4 15,2 14,1 20,7 22,0 7 4 9 5 ESE 1010,1 6 7 0,0
23.09.2020 08:00:00 14,8 14,5 13,5 20,8 22,0 6 3 7 4 ESE 1010,2 0,5 0 0,2
23.09.2020 07:00:00 15,1 14,8 13,9 20,9 22,1 7 4 8 5 ESE 1010,6 6 0 0,0
23.09.2020 06:00:00 14,9 14,6 13,1 21,0 22,0 4 2 7 4 SE 1010,9 0,3 0 0,0
23.09.2020 05:00:00 15,2 14,7 13,6 21,2 22,1 3 2 7 4 S 1011,3 0,3 0 0,0
23.09.2020 04:00:00 15,2 14,7 12,7 21,4 22,0 5 3 7 4 SE 1011,5 1,4 0 0,0
23.09.2020 03:00:00 15,4 14,8 13,3 21,5 22,1 0 0 5 3 N 1012,2 0,3 0 0,0
23.09.2020 02:00:00 15,7 15,2 13,3 21,6 22,1 0 0 5 3 N 1012,5 0,2 0 0,0
23.09.2020 01:00:00 16,2 15,4 14,2 21,8 22,1 4 2 5 3 S 1012,9 0,6 0 0,0
23.09.2020 00:00:00 16,6 15,8 15,6 21,9 22,1 5 3 6 4 S 1013,4 7 0 0,0
22.09.2020 23:00:00 16,8 15,7 13,8 22,1 22,1 6 3 8 4 WSW 1013,5 0,6 0 0,0
22.09.2020 22:00:00 17,3 15,6 14,1 22,3 22,1 3 1 6 4 SW 1013,1 0,3 0 0,0
22.09.2020 21:00:00 18,7 15,8 16,6 22,4 22,1 3 2 16 9 NNW 1012,7 1,7 0 0,0
22.09.2020 20:00:00 20,2 15,8 18,9 22,5 22,1 7 4 15 8 WNW 1012,5 43 37 0,0
22.09.2020 19:00:00 22,0 16,0 23,9 22,4 22,1 12 6 22 12 WNW 1012,6 50 60 0,0
22.09.2020 18:00:00 22,6 16,2 22,5 22,3 22,1 10 5 19 10 W 1012,9 36 45 0,0
22.09.2020 17:00:00 21,6 16,3 22,2 22,2 22,2 3 2 10 5 WSW 1013,4 35 6 0,0
22.09.2020 16:00:00 20,2 16,6 19,3 22,1 22,2 4 2 26 14 NW 1014,0 47 0 0,2
22.09.2020 15:00:00 21,7 16,0 23,4 21,8 22,2 14 7 22 12 W 1014,3 19 18 0,0
22.09.2020 14:00:00 21,7 16,6 24,5 21,6 22,2 11 6 17 9 NW 1014,8 45 14 0,0
22.09.2020 13:00:00 20,6 16,8 22,6 21,4 22,2 10 5 14 8 NW 1015,3 27 0 0,0
22.09.2020 12:00:00 19,8 16,6 21,8 21,3 22,2 7 4 11 6 WNW 1015,5 25 0 0,0
22.09.2020 11:00:00 18,8 16,2 19,7 21,2 22,2 0 0 6 3 N 1015,5 19 0 0,0
22.09.2020 10:00:00 17,8 16,7 17,4 21,2 22,2 0 0 5 3 N 1015,6 11 0 0,0
22.09.2020 09:00:00 17,0 16,5 15,4 21,3 22,2 0 0 6 3 N 1015,6 7 0 0,2
22.09.2020 08:00:00 16,6 16,0 15,2 21,3 22,2 0 0 5 3 N 1015,4 0,6 0 0,0
22.09.2020 07:00:00 17,0 16,2 16,2 21,4 22,2 3 2 10 6 NW 1015,1 1,1 0 0,0
22.09.2020 06:00:00 17,2 16,6 16,8 21,5 22,3 4 2 14 8 NNW 1015,2 9 0 0,0
22.09.2020 05:00:00 17,3 16,8 16,9 21,6 22,3 5 3 8 5 NW 1015,4 5 0 0,0
22.09.2020 04:00:00 17,5 17,0 17,0 21,7 22,3 4 2 14 8 NW 1015,9 6 0 0,0
22.09.2020 03:00:00 17,7 17,2 17,2 21,7 22,3 7 4 10 6 NW 1016,3 4,7 0 0,0
22.09.2020 02:00:00 17,9 17,4 17,4 21,8 22,3 9 5 13 7 WNW 1016,5 6 0 0,0
22.09.2020 01:00:00 18,1 17,5 17,5 21,9 22,3 5 3 10 5 NW 1016,7 8 0 0,0
22.09.2020 00:00:00 18,4 17,7 17,9 22,0 22,3 9 5 18 10 NNW 1017,1 7 0 0,8
21.09.2020 23:00:00 18,7 18,0 18,2 22,0 22,3 11 6 19 10 NNW 1017,3 8 0 0,2
21.09.2020 22:00:00 18,8 18,3 17,3 22,1 22,3 11 6 16 8 NW 1017,0 5 0 0,4
21.09.2020 21:00:00 17,9 17,1 16,8 22,2 22,3 4 2 12 7 W 1017,0 3,7 0 0,6
21.09.2020 20:00:00 17,7 16,4 16,9 22,3 22,3 4 2 22 12 NNW 1017,0 7 0 0,6
21.09.2020 19:00:00 19,6 18,6 19,1 22,3 22,4 8 4 24 13 N 1016,8 6 0 0,8
21.09.2020 18:00:00 19,6 18,6 19,1 22,4 22,4 7 4 13 7 WNW 1016,7 10 0 0,8
21.09.2020 17:00:00 19,3 18,5 18,6 22,4 22,4 6 3 13 7 WNW 1016,9 7 0 1,2
21.09.2020 16:00:00 18,8 17,6 18,4 22,5 22,4 10 6 26 14 W 1016,8 14 0 0,8
21.09.2020 15:00:00 18,9 18,2 18,1 22,6 22,4 17 9 32 18 W 1016,9 3,0 0 22,4
21.09.2020 14:00:00 22,9 16,7 25,5 22,3 22,4 10 5 21 11 WSW 1016,7 24 23 0,0
21.09.2020 13:00:00 22,1 17,7 23,2 22,1 22,4 8 4 16 8 WNW 1017,1 20 11 0,0
21.09.2020 12:00:00 20,7 17,9 22,3 21,9 22,4 10 6 16 9 NNW 1017,5 4,1 0 0,0
21.09.2020 11:00:00 19,7 18,0 20,6 21,9 22,4 6 3 16 9 NNW 1017,4 15 0 0,0
21.09.2020 10:00:00 18,9 18,1 18,8 21,9 22,4 5 3 8 5 W 1017,2 8 0 0,0
21.09.2020 09:00:00 18,2 17,9 17,1 21,9 22,4 0 0 5 3 N 1017,1 2,3 0 0,0
21.09.2020 08:00:00 17,6 17,1 17,1 22,0 22,4 0 0 6 4 N 1016,6 0,5 0 0,0
21.09.2020 07:00:00 17,8 17,5 17,2 22,1 22,4 0 0 9 5 N 1016,3 0,8 0 0,0
21.09.2020 06:00:00 17,6 17,1 17,2 22,2 22,4 8 4 10 5 WSW 1016,4 0,6 0 0,0
21.09.2020 05:00:00 17,9 17,3 17,4 22,3 22,4 5 3 8 4 SSW 1016,3 6 0 0,0
21.09.2020 04:00:00 18,2 17,4 17,6 22,4 22,4 4 2 11 6 WNW 1016,3 3,9 0 0,0
21.09.2020 03:00:00 18,2 17,4 17,8 22,5 22,4 9 5 13 7 WNW 1016,5 12 0 0,0
21.09.2020 02:00:00 18,3 17,7 17,4 22,6 22,4 7 4 8 5 WNW 1016,9 12 0 0,0
21.09.2020 01:00:00 18,4 17,4 17,7 22,7 22,4 7 4 12 6 W 1016,7 16 0 0,0
21.09.2020 00:00:00 18,7 17,5 18,1 22,9 22,5 7 4 12 6 W 1016,6 19 0 0,0
20.09.2020 23:00:00 18,8 17,6 18,0 23,0 22,5 10 6 12 7 SW 1016,7 13 0 0,0
20.09.2020 22:00:00 19,1 17,4 18,1 23,1 22,5 0 0 11 6 N 1016,6 19 0 0,0
20.09.2020 21:00:00 19,6 17,6 18,6 23,3 22,5 7 4 14 8 W 1016,0 57 0 0,0
20.09.2020 20:00:00 20,2 17,6 18,8 23,3 22,5 13 7 18 10 WNW 1015,3 58 2 0,0
20.09.2020 19:00:00 20,6 18,5 19,4 23,4 22,5 11 6 27 15 WNW 1014,8 60 0 1,6
20.09.2020 18:00:00 22,2 17,8 22,8 23,3 22,5 18 10 26 14 W 1014,2 51 32 0,0
20.09.2020 17:00:00 22,3 16,8 22,3 23,3 22,5 11 6 24 13 W 1014,3 35 0 0,0
20.09.2020 16:00:00 22,9 15,7 24,0 23,0 22,5 8 4 21 11 NW 1014,2 60 10 0,0
20.09.2020 15:00:00 24,0 15,5 27,5 22,7 22,5 6 3 19 11 NNW 1014,3 55 55 0,0
20.09.2020 14:00:00 22,7 16,0 26,4 22,4 22,5 7 4 21 11 N 1014,7 55 52 0,0
20.09.2020 13:00:00 21,7 15,8 23,9 22,1 22,5 7 4 19 10 NNE 1014,9 48 48 0,0
20.09.2020 12:00:00 19,6 16,6 21,0 22,0 22,6 9 5 17 9 N 1015,0 45 0 0,0
20.09.2020 11:00:00 19,0 17,1 19,0 22,0 22,6 10 5 14 7 NW 1014,7 16 0 0,0
20.09.2020 10:00:00 18,3 17,0 18,7 22,0 22,6 8 5 14 8 N 1014,2 20 0 0,0
20.09.2020 09:00:00 17,9 17,4 17,7 22,1 22,6 6 3 14 7 N 1013,7 0,9 0 0,0
20.09.2020 08:00:00 17,8 17,2 17,5 22,1 22,6 7 4 9 5 N 1013,3 12 0 0,0
20.09.2020 07:00:00 17,5 16,9 17,1 22,2 22,6 2 1 10 6 ESE 1012,9 19 0 0,0
20.09.2020 06:00:00 17,3 16,8 16,7 22,3 22,6 7 4 14 8 ESE 1012,8 18 0 0,0
20.09.2020 05:00:00 16,9 16,6 15,7 22,4 22,6 10 5 14 7 SE 1013,0 18 0 0,0
20.09.2020 04:00:00 16,6 16,3 15,6 22,6 22,6 9 5 14 7 SSE 1013,1 18 0 0,0
20.09.2020 03:00:00 16,5 16,0 15,5 22,7 22,6 8 4 10 5 ESE 1013,3 18 0 0,0
20.09.2020 02:00:00 16,9 16,3 16,0 22,9 22,6 6 3 13 7 SSE 1013,1 17 0 0,0
20.09.2020 01:00:00 17,2 16,4 16,0 23,0 22,6 4 2 9 5 SE 1013,6 50 0 0,0
20.09.2020 00:00:00 17,7 16,7 16,3 23,2 22,6 0 0 14 8 N 1013,3 24 0 0,0
19.09.2020 23:00:00 18,5 17,0 17,8 23,3 22,6 9 5 17 9 S 1013,6 60 0 0,0
19.09.2020 22:00:00 18,9 17,0 17,9 23,4 22,6 11 6 15 8 S 1013,4 60 0 0,0
19.09.2020 21:00:00 19,2 17,5 17,8 23,5 22,7 5 3 9 5 SW 1012,5 56 0 0,0
19.09.2020 20:00:00 19,8 17,4 18,3 23,6 22,6 5 3 11 6 WNW 1012,0 60 0 0,0
19.09.2020 19:00:00 20,1 18,2 17,7 23,6 22,6 0 0 15 8 N 1011,8 15 0 2,7
19.09.2020 18:00:00 20,5 16,7 18,1 23,6 22,6 14 7 35 19 WSW 1011,3 2,2 0 1,2
19.09.2020 17:00:00 25,2 14,0 25,8 23,6 22,7 3 1 15 8 W 1010,6 46 8 0,0
19.09.2020 16:00:00 25,9 14,0 28,4 23,4 22,6 9 5 22 12 NW 1010,5 59 40 0,0
19.09.2020 15:00:00 25,7 14,2 26,8 23,3 22,6 6 4 23 13 W 1011,2 56 16 0,0
19.09.2020 14:00:00 24,4 13,9 26,3 23,1 22,7 13 7 37 20 SW 1011,7 51 5 0,0
19.09.2020 13:00:00 25,4 14,5 25,1 23,0 22,6 18 10 25 14 SSW 1011,8 28 30 0,0
19.09.2020 12:00:00 22,2 17,3 22,8 22,9 22,7 14 8 23 13 S 1012,5 33 3 0,0
19.09.2020 11:00:00 22,2 17,6 21,4 22,9 22,7 16 9 22 12 SSE 1012,0 27 48 0,0
19.09.2020 10:00:00 19,7 17,1 19,0 23,0 22,7 12 6 23 12 SE 1011,5 18 23 0,0
19.09.2020 09:00:00 18,7 17,0 16,9 23,1 22,7 13 7 19 10 SE 1011,3 32 25 0,0
19.09.2020 08:00:00 17,8 16,8 16,8 23,2 22,6 12 7 19 10 SE 1011,3 20 0 0,0
19.09.2020 07:00:00 18,2 17,4 17,5 23,3 22,7 13 7 17 9 SE 1011,1 17 0 0,0
19.09.2020 06:00:00 18,6 18,1 17,9 23,4 22,7 5 3 14 8 SSE 1011,1 4,3 0 0,0
19.09.2020 05:00:00 18,9 18,6 17,8 23,6 22,7 8 4 9 5 ESE 1011,0 0,8 0 0,0
19.09.2020 04:00:00 19,0 18,5 17,2 23,6 22,6 2 1 6 3 E 1011,4 0,2 0 0,0
19.09.2020 03:00:00 19,2 18,5 17,8 23,8 22,7 0 0 12 6 N 1011,6 0,9 0 0,2
19.09.2020 02:00:00 19,6 18,8 18,1 23,8 22,7 0 0 12 7 N 1011,5 0,6 0 0,4
19.09.2020 01:00:00 19,7 18,7 18,9 23,9 22,6 10 5 15 8 NE 1011,5 6 0 1,0
19.09.2020 00:00:00 21,1 18,1 18,9 23,9 22,6 5 3 31 17 WNW 1012,6 6 0 0,6
18.09.2020 23:00:00 24,3 15,2 23,2 24,0 22,7 14 8 23 12 E 1012,1 18 0 0,0
18.09.2020 22:00:00 24,1 15,8 22,7 24,1 22,7 8 4 14 8 E 1012,2 28 0 0,0
18.09.2020 21:00:00 24,1 15,8 22,3 24,1 22,7 9 5 21 12 E 1011,8 29 0 0,0
18.09.2020 20:00:00 25,2 15,5 24,2 24,1 22,7 9 5 17 9 NE 1011,7 34 0 0,0
18.09.2020 19:00:00 25,9 15,6 25,8 24,1 22,7 14 8 23 13 E 1012,2 30 6 0,0
18.09.2020 18:00:00 26,3 17,1 25,0 24,0 22,6 13 7 19 11 E 1012,1 24 0 0,0
18.09.2020 17:00:00 25,6 17,0 25,9 24,0 22,6 16 8 19 10 ESE 1012,5 25 0 0,0
18.09.2020 16:00:00 25,5 16,4 25,0 23,9 22,7 11 6 16 9 ESE 1012,5 23 0 0,0
18.09.2020 15:00:00 25,7 16,0 26,2 23,8 22,6 10 5 16 9 ESE 1012,4 28 0 0,0
18.09.2020 14:00:00 24,5 15,1 25,7 23,8 22,7 10 5 16 8 SE 1012,8 28 0 0,0
18.09.2020 13:00:00 23,9 14,9 25,0 23,7 22,7 10 5 16 9 E 1012,3 29 0 0,0
18.09.2020 12:00:00 23,4 14,7 23,0 23,7 22,7 9 5 15 8 SE 1012,2 28 0 0,0
18.09.2020 11:00:00 22,6 13,9 23,7 23,7 22,7 7 4 23 13 S 1012,7 22 0 0,0
18.09.2020 10:00:00 22,2 12,7 22,0 23,8 22,6 11 6 21 11 SSE 1012,0 37 0 0,0
18.09.2020 09:00:00 21,7 12,3 20,3 23,8 22,6 13 7 18 10 ESE 1011,4 33 0 0,0

tt = Température de l'air
td = dewpoint
tt 5cm = Température de l'air 5cm
tt -20cm = Température de l'air -20cm
tt -100cm = Température de l'air -100cm
ff = Vitesse du vent
fx = gusts
dd = Direction du vent
ppp = reduced air pressure
vv = visibility
sd = Ensoleillement
rr = Quantités de précipitations

stations d'obs. à proximité